Location: Clyde
(45.1830°S, 169.3170°E)
Time: 10:33:35
(UTC+12:00)

Cosmos 405 Rocket - Pass Details

Date: 14 May 2021
Orbit: 488 x 553 km, 81.3° (Epoch: 15 June)

Event Time Altitude Azimuth Distance (km) Brightness Sun altitude
Rises 18:10:49 0° 15° (NNE) 2,572 6.3 -8.3°
Reaches altitude 10° 18:13:03 10° 25° (NNE) 1,706 5.3 -8.7°
Maximum altitude 18:16:22 30° 87° (E) 926 3.5 -9.3°
Drops below altitude 10° 18:19:46 10° 150° (SSE) 1,757 5.0 -9.9°
Enters shadow 18:21:29 - 158° (SSE) 2,417 5.7 -10.1°
